Temperature
20 20 19 19 19 19 21 22 23 23 22 23 22 22 21 21 21 21 21 20 20 20 20 19 19 19 19 19 19 19 19 19 19 19 19 19 19 19 19 19 19 19 19 19 19 19 18 18 18
20 20 19 19 19 20 21 22 23 23 23 23 23 22 21 20 21 21 21 20 20 20 20 19 19 19 19 19 19 19 19 19 19 19 19 19 19 19 19 19 19 19 19 19 19 19 18 18 18
20 20 20 19 20 20 22 23 23 23 23 23 23 22 21 21 21 21 21 20 20 20 20 19 19 19 19 19 19 19 19 19 19 19 19 19 19 19 19 19 19 19 19 19 19 18 18 18 18
20 20 20 20 21 22 22 23 23 23 24 23 22 21 21 21 21 21 21 20 20 20 19 19 19 19 19 19 19 19 19 19 19 19 19 19 19 19 19 19 19 19 19 19 19 18 18 18 18
20 20 20 20 22 23 23 23 23 23 23 23 22 21 21 21 21 21 21 20 20 20 19 19 19 19 19 19 19 19 19 19 19 19 19 19 19 19 19 19 19 19 19 19 19 18 18 18 18
21 20 20 21 22 23 24 24 24 23 23 22 22 21 21 21 21 21 21 20 20 20 19 19 19 19 19 19 19 19 19 19 19 19 19 19 19 19 19 19 19 19 19 18 18 18 18 18 18
21 20 21 22 22 23 24 24 23 23 22 22 22 20 21 21 21 21 21 20 20 20 19 19 19 19 19 19 19 19 19 19 19 19 19 19 19 19 19 19 19 19 18 18 18 18 18 18 18
21 20 21 21 22 23 24 24 24 23 23 23 23 21 21 21 21 21 20 20 20 20 20 19 19 19 19 19 19 19 19 19 19 19 19 19 19 19 19 19 19 19 18 18 18 18 18 18 18
22 20 21 22 23 23 24 24 24 24 23 23 22 22 22 21 21 20 20 20 20 20 20 20 19 19 19 19 19 19 19 19 19 19 19 19 19 19 19 18 18 19 18 18 18 18 18 18 18
22 20 22 23 23 24 24 24 24 24 23 22 22 22 22 21 21 21 21 21 20 20 20 20 19 19 19 19 19 19 19 19 19 19 19 19 19 19 19 19 18 18 18 18 18 18 18 18 18
22 21 23 24 25 24 24 24 24 23 22 23 22 22 22 21 21 21 21 21 21 20 20 20 20 19 19 19 19 19 19 19 19 19 19 19 19 19 18 18 18 18 18 18 18 18 18 18 18
22 23 24 24 25 25 24 24 24 24 24 24 24 23 22 22 21 21 21 21 21 20 20 20 20 20 19 19 19 19 19 19 19 19 19 19 19 19 19 19 19 19 19 18 18 18 18 18 18
23 23 25 25 25 25 24 24 24 24 24 24 23 23 22 22 22 22 21 21 21 20 20 20 20 20 19 19 19 19 19 19 19 19 19 19 19 19 19 19 19 19 19 19 19 18 18 18 18
24 24 24 25 25 25 24 24 24 24 24 24 23 22 22 22 22 22 21 21 21 21 20 20 20 20 20 19 19 19 19 19 19 19 19 19 19 19 19 19 19 19 19 19 19 18 18 18 18
24 24 24 24 25 25 25 24 23 24 24 23 22 22 22 22 22 22 22 21 21 21 20 20 20 20 20 19 19 19 19 19 19 19 18 18 19 19 19 19 19 19 19 19 19 18 18 18 18
24 23 23 25 25 25 25 24 24 24 23 22 22 22 22 22 22 22 22 21 21 21 21 20 20 20 20 19 19 19 19 19 19 19 18 18 19 18 19 19 19 19 18 18 18 18 18 18 18
23 23 23 24 25 25 24 23 23 23 23 22 22 22 22 22 22 22 22 22 21 21 21 21 20 20 20 20 19 19 19 19 19 18 18 18 18 18 18 19 18 18 18 18 18 18 18 18 18
23 23 23 24 25 24 24 23 23 23 22 22 22 22 22 22 22 22 22 22 22 21 21 21 21 20 20 20 19 19 19 19 19 19 18 18 18 18 18 18 18 18 18 18 18 18 18 18 18
24 23 23 24 25 24 23 23 22 22 22 21 21 21 22 22 22 22 22 22 22 21 21 21 21 20 20 20 20 19 19 19 19 19 18 18 18 18 18 18 18 18 18 18 18 18 18 18 18
24 23 23 24 25 24 23 23 22 22 22 22 21 21 22 22 22 22 22 21 21 21 21 21 21 20 20 20 20 19 19 19 19 19 19 18 18 18 18 18 18 18 18 18 18 18 18 18 17
24 23 24 24 24 24 23 23 22 22 22 22 22 22 22 22 21 22 22 21 21 21 21 21 21 20 20 20 19 19 19 19 19 19 19 19 18 18 18 18 18 18 18 18 18 18 18 18 17
24 25 25 24 23 22 23 22 22 21 21 21 21 21 21 21 21 22 22 21 21 21 21 21 21 20 20 20 19 19 19 19 19 19 18 18 18 18 18 18 18 18 18 18 18 18 18 17 17
24 25 24 23 22 21 21 21 21 20 21 21 21 21 21 21 22 22 22 21 21 21 21 21 21 20 20 20 19 19 19 19 19 18 18 18 18 18 18 18 18 18 18 18 18 17 17 17 17
25 24 22 20 20 21 21 21 21 20 21 21 21 21 21 22 22 22 22 22 21 21 21 21 21 20 20 20 19 19 19 19 19 18 18 18 18 18 18 18 18 17 17 17 17 17 17 17 17
24 22 21 22 20 21 21 21 21 21 21 21 21 21 21 22 21 21 22 22 21 21 21 21 21 20 20 20 19 19 19 19 19 18 18 18 18 18 18 17 17 17 17 17 17 17 17 17 17
23 22 22 22 21 21 21 20 21 22 21 21 21 21 21 21 21 22 22 22 21 21 21 21 21 20 20 19 19 19 19 19 18 18 18 18 18 18 17 17 17 17 17 17 17 17 17 16 16
23 21 22 20 21 21 20 20 21 21 21 20 21 21 20 21 21 21 21 21 21 21 21 21 20 20 20 20 19 19 19 19 18 18 18 18 18 17 17 17 17 17 17 17 17 17 16 16 16
23 21 19 20 20 21 21 21 21 21 21 20 20 20 21 21 21 21 21 21 21 21 21 21 20 20 20 20 19 19 19 18 18 18 18 18 18 17 17 17 17 17 17 16 16 16 16 16 16
22 21 19 18 19 20 21 21 22 21 20 20 20 20 21 21 21 21 21 21 21 21 20 20 20 20 20 20 19 19 19 18 18 18 18 18 17 17 17 17 17 16 16 16 16 16 16 16 16
23 22 20 21 20 18 19 20 22 20 20 20 20 20 21 21 21 21 21 21 20 20 20 20 19 19 19 19 19 19 18 18 18 18 18 17 17 17 17 16 16 16 16 16 16 16 15 15 15
Wind_Speed
6 5 3 1 2 2 2 3 1 1 2 2 3 4 5 3 2 2 0 5 5 5 6 9 9 9 11 13 12 11 11 11 11 11 11 11 11 10 10 10 9 9 9 8 8 7 8 8 8
5 4 2 1 3 2 3 2 1 1 3 4 4 5 5 3 2 3 3 4 6 6 6 8 9 9 11 11 11 11 11 11 10 10 10 10 10 10 9 9 8 8 7 7 7 7 7 6 7
5 3 1 2 1 2 2 1 2 2 2 2 3 4 4 2 2 3 3 7 6 5 5 7 10 10 10 10 10 10 10 10 10 9 9 9 9 9 8 8 7 7 7 6 6 6 6 5 5
3 1 1 2 2 3 3 2 2 2 2 3 4 4 3 1 3 4 8 8 7 4 5 6 10 10 9 9 9 10 9 9 9 9 8 8 8 7 7 7 6 6 6 6 6 6 6 6 5
1 2 3 2 3 3 1 2 2 2 1 3 4 4 2 3 6 9 9 8 7 4 3 5 9 10 10 9 9 10 9 9 8 8 7 7 7 7 6 6 6 5 6 6 6 5 5 5 5
2 2 2 2 3 3 1 2 3 3 3 3 4 3 1 2 6 8 8 7 6 5 3 4 8 9 9 9 10 9 9 8 8 7 7 6 6 6 5 5 5 5 5 5 5 5 5 5 5
2 2 0 2 2 2 0 2 3 3 2 2 4 4 1 2 4 7 7 6 5 4 3 2 4 6 8 9 9 9 8 7 7 6 6 5 5 4 4 3 3 4 4 5 5 5 6 6 6
2 2 1 2 1 2 1 2 2 3 2 3 4 5 4 4 6 7 7 6 5 3 2 2 2 3 4 5 7 8 8 7 6 5 5 4 3 3 2 3 3 3 3 4 4 5 6 6 6
2 2 2 3 3 3 1 1 1 2 4 3 2 3 4 11 10 8 6 4 3 3 2 2 2 2 2 3 5 6 6 5 5 4 4 2 1 1 2 2 3 4 4 4 5 5 5 4 4
3 1 4 4 4 3 2 2 3 3 3 2 4 5 9 12 11 9 7 7 6 5 3 2 2 2 2 2 3 3 3 3 2 1 1 1 0 1 2 3 3 4 4 4 4 4 4 3 2
4 4 4 4 4 3 2 1 3 6 3 5 7 9 12 11 9 8 7 6 6 5 4 3 3 2 2 1 2 1 1 1 0 0 0 0 1 1 2 2 3 3 3 2 2 2 2 1 1
3 5 5 4 2 2 2 2 2 4 5 5 9 12 13 12 10 9 9 7 5 4 5 3 4 3 3 2 1 1 1 1 1 1 1 0 0 1 1 1 2 2 2 1 2 1 1 1 2
3 4 3 3 3 2 2 2 3 3 2 8 10 11 11 11 10 8 7 6 5 5 5 4 4 4 3 2 2 2 2 1 2 1 2 1 1 1 1 1 1 2 1 1 1 1 1 1 1
3 3 4 3 2 1 3 1 2 2 6 9 10 10 10 11 10 7 6 6 6 6 6 5 5 4 4 3 2 1 2 2 2 2 2 2 2 1 1 1 1 1 1 1 1 1 1 1 1
1 3 5 2 0 1 3 2 2 3 8 9 9 8 8 8 7 8 8 8 8 7 6 6 6 5 4 4 3 2 2 2 2 2 2 2 3 2 1 1 1 2 1 0 0 1 0 1 1
3 3 3 4 0 1 4 3 3 5 9 8 7 7 7 6 7 7 7 6 7 6 6 6 6 6 5 4 3 2 2 2 2 2 2 2 3 2 2 1 1 1 0 0 0 0 1 1 1
3 2 3 5 1 1 2 4 3 5 8 8 7 7 6 6 5 5 6 7 7 7 7 6 5 6 5 4 3 2 2 2 1 1 1 1 2 2 2 1 1 1 0 0 1 0 0 1 1
3 2 3 4 2 1 1 4 2 4 7 7 6 6 6 7 7 6 6 6 6 6 6 6 5 5 4 3 2 2 1 1 1 1 1 1 1 2 2 1 1 0 0 0 0 0 0 0 1
3 3 5 6 3 1 3 4 3 4 4 5 5 6 6 7 5 4 5 6 6 5 5 5 6 5 5 3 3 2 2 1 1 1 1 1 1 1 2 1 0 0 1 1 1 1 0 1 0
5 4 4 4 1 2 1 4 3 3 6 6 7 7 7 5 3 4 5 5 6 7 6 5 5 5 5 3 2 2 2 1 1 1 1 0 1 1 1 1 1 1 1 1 0 1 1 0 1
5 6 5 3 2 3 2 5 2 2 2 2 3 4 5 7 7 6 6 6 6 7 7 7 6 5 5 4 3 2 2 1 1 1 1 1 0 1 1 2 1 1 1 1 2 1 2 1 1
5 5 5 3 1 1 2 3 6 2 2 4 4 4 5 6 6 6 6 6 6 7 6 6 5 5 4 5 4 4 3 2 2 1 1 1 1 0 1 1 1 1 1 2 2 2 2 2 2
5 2 3 2 3 1 1 2 7 2 3 6 6 6 6 7 8 8 7 7 6 6 6 6 6 5 4 4 5 5 3 2 1 0 0 1 1 1 0 0 0 0 1 1 2 2 2 2 2
4 5 6 5 4 1 3 3 6 4 5 4 5 6 7 7 7 6 6 6 6 6 6 6 6 5 5 5 5 5 4 3 2 1 0 1 1 1 1 0 0 0 1 1 2 2 2 2 2
4 5 3 4 3 5 2 3 7 6 5 5 5 6 6 6 7 7 7 7 6 6 6 6 6 5 5 5 4 4 4 4 4 3 2 1 1 1 2 1 1 1 1 2 1 1 1 2 2
5 8 7 5 5 4 1 4 6 3 2 2 4 5 5 5 6 7 7 7 7 7 7 7 7 6 5 5 4 4 3 3 2 2 2 2 2 2 2 1 1 2 1 1 1 1 1 1 1
5 4 6 6 2 1 4 5 6 1 2 1 3 4 5 6 6 5 5 5 6 6 6 6 6 5 5 5 5 3 3 3 3 2 2 1 1 2 1 1 2 2 1 1 0 0 1 0 1
5 8 6 6 5 3 4 4 5 4 4 3 4 5 5 4 4 4 5 5 5 5 5 5 5 5 4 4 4 3 3 3 3 2 2 2 1 1 1 1 1 1 1 1 0 1 1 1 1
3 4 5 5 5 6 4 6 5 7 6 6 6 6 6 5 5 5 4 4 4 4 5 5 5 4 3 3 3 3 3 2 2 2 2 2 2 2 2 1 1 1 1 1 0 1 1 1 2
4 6 7 5 4 5 4 6 4 4 5 5 4 4 4 5 5 5 4 4 4 4 4 4 5 4 4 4 3 3 3 2 2 2 2 1 2 2 1 1 1 1 1 1 1 2 2 2 2
Wind_Direction
179 160 148 156 44 34 316 298 254 21 39 46 78 86 99 93 133 162 104 131 127 136 146 148 145 138 131 134 136 135 133 134 135 133 132 135 138 141 142 143 144 145 145 148 152 158 156 160 164
154 157 162 60 65 20 307 294 63 100 154 131 82 75 73 64 62 110 119 135 127 133 135 143 146 142 140 140 140 137 136 138 138 136 136 136 138 141 145 144 145 146 148 153 163 167 166 169 173
166 187 119 57 79 195 257 276 125 91 131 112 77 64 87 105 131 151 155 133 120 123 135 151 145 143 142 142 143 144 144 144 141 138 138 139 140 144 148 147 150 154 158 165 171 176 175 177 178
160 114 57 51 301 244 222 231 150 127 57 60 96 70 62 70 149 143 130 128 121 117 133 156 147 145 145 147 146 149 150 148 144 142 144 145 145 147 150 152 158 166 174 178 181 183 183 184 187
104 82 39 356 299 286 235 187 160 129 88 71 94 93 45 26 99 116 126 129 131 129 141 160 151 151 153 155 152 150 152 151 146 147 150 151 150 155 158 163 174 182 189 191 191 194 192 192 195
69 63 46 332 317 323 341 132 113 95 93 95 102 104 44 75 111 125 125 124 129 135 143 161 158 157 157 157 156 157 155 152 150 155 162 162 158 158 163 176 187 196 202 200 201 206 206 206 209
105 84 2 299 320 330 198 108 118 114 102 144 130 110 76 117 128 124 118 115 115 119 118 123 147 155 158 158 157 159 155 153 156 163 167 167 167 170 178 185 198 210 215 213 217 220 219 216 217
145 96 352 309 283 287 177 93 111 135 145 131 124 141 186 176 134 114 105 105 109 109 106 105 115 128 145 159 160 159 155 157 161 169 176 173 175 183 201 209 225 235 234 234 237 236 231 230 228
125 60 293 244 214 253 206 106 124 124 115 125 134 161 166 137 130 120 113 114 134 152 143 132 135 127 137 157 164 157 157 159 163 175 177 172 184 234 247 250 257 265 265 252 251 249 247 246 247
125 151 246 231 205 213 233 178 163 125 124 121 93 89 120 135 143 148 156 166 178 186 182 170 166 156 150 164 147 149 158 160 162 153 125 77 28 280 275 282 282 281 273 267 261 261 265 268 282
171 211 252 261 233 210 210 177 150 140 183 193 164 147 144 148 157 167 174 179 189 188 188 181 180 172 166 163 143 147 159 153 161 173 89 47 330 298 316 319 314 311 304 304 302 308 297 283 266
201 248 248 268 240 197 192 157 144 181 216 176 155 151 154 162 172 179 182 188 181 181 200 189 176 172 180 174 167 163 167 184 223 247 248 217 319 335 326 329 316 322 315 322 323 319 310 305 296
218 273 280 259 279 235 157 173 173 231 159 128 133 145 161 173 183 187 184 180 176 190 200 197 183 181 178 172 197 180 187 202 226 243 250 215 201 268 298 309 319 316 314 306 309 312 314 307 295
247 272 300 300 268 202 146 156 145 225 136 135 147 162 173 181 185 182 182 183 187 196 199 193 191 185 173 186 195 194 192 202 209 234 241 220 208 219 239 286 317 315 298 263 269 286 285 294 288
334 344 339 327 323 167 113 23 220 186 140 148 165 174 181 187 183 189 191 189 192 193 193 191 192 179 181 195 195 186 191 183 195 228 238 226 210 205 198 214 295 303 305 314 355 331 352 323 319
19 32 338 299 333 87 107 258 255 159 151 165 178 183 185 188 191 197 190 186 186 180 179 189 190 174 175 181 177 167 177 178 201 218 226 226 213 195 174 186 275 302 342 105 180 8 2 342 327
19 348 287 300 259 93 123 252 254 162 168 179 187 190 190 193 199 197 187 181 179 174 173 176 174 166 172 171 159 154 157 167 192 191 198 228 217 190 169 200 265 311 89 224 245 96 149 310 315
238 253 278 282 284 66 220 259 265 168 181 190 193 195 197 203 210 198 185 174 166 165 170 171 164 160 157 147 136 126 132 148 137 196 212 207 200 186 175 187 245 115 85 344 320 81 66 273 304
196 215 263 272 267 188 229 257 253 174 180 196 201 204 209 217 208 183 176 167 157 159 166 174 168 166 158 156 162 168 199 202 202 228 230 220 197 180 161 212 200 121 184 240 231 170 79 17 38
207 232 256 290 335 163 238 281 254 192 199 204 202 206 210 208 190 178 177 175 171 171 172 175 177 174 176 177 163 162 162 185 204 268 338 275 204 195 180 174 203 210 218 275 237 155 159 275 101
228 209 223 234 359 44 55 326 295 240 216 205 206 206 206 196 192 188 186 187 179 180 181 184 186 183 175 163 130 109 86 60 36 346 311 312 256 198 180 175 190 202 202 233 243 201 189 219 232
255 224 199 191 125 304 98 277 292 259 261 233 223 204 203 193 182 185 190 187 190 193 183 184 178 179 175 161 158 156 162 181 213 220 255 307 338 235 180 176 189 215 217 234 250 226 210 195 232
219 152 128 130 136 58 32 163 287 318 266 248 229 212 201 190 184 183 188 191 193 185 173 174 170 169 163 167 175 171 175 188 183 129 46 329 334 344 339 120 102 256 245 246 256 247 221 210 216
145 70 55 49 73 324 251 172 278 249 233 245 223 202 196 185 181 180 181 175 179 172 163 165 167 171 166 169 179 179 179 172 153 151 187 313 331 332 334 91 133 251 257 257 252 242 229 227 222
114 102 35 355 4 256 241 185 249 254 232 223 214 200 194 179 176 180 178 175 176 171 168 168 169 176 173 173 185 191 191 181 181 186 193 206 269 287 281 265 253 257 261 261 255 257 259 235 225
182 152 167 199 222 267 289 227 252 258 262 229 206 185 176 173 177 184 184 178 179 174 169 169 171 177 173 179 190 193 189 187 199 198 193 202 228 248 253 246 254 263 271 277 247 250 266 253 242
153 182 171 142 150 251 274 279 301 321 352 214 185 171 180 186 183 183 179 176 173 170 173 173 172 169 172 186 183 181 184 187 196 200 197 215 243 255 257 259 256 271 282 282 262 253 269 268 272
146 148 111 129 156 232 273 264 247 247 245 230 194 197 200 181 171 166 176 178 169 166 164 154 163 173 175 176 172 168 184 185 181 173 193 212 235 253 260 278 276 287 297 311 336 290 281 242 265
119 115 119 126 152 166 230 263 229 216 214 209 206 197 189 180 178 178 183 168 155 150 153 154 162 166 161 161 164 153 166 179 180 191 219 221 217 212 227 257 273 271 278 286 299 282 275 266 279
175 168 152 157 203 177 185 260 284 211 208 192 197 194 188 168 168 166 163 151 146 152 160 167 167 170 172 165 155 165 169 176 191 215 237 223 214 216 217 238 268 274 271 256 235 263 282 270 270
Height
1496 1496 1497 1499 1500 1506 1506 1497 1490 1489 1489 1488 1488 1488 1490 1493 1496 1501 1496 1495 1495 1496 1497 1497 1498 1497 1494 1495 1500 1504 1506 1507 1509 1511 1512 1513 1515 1516 1517 1518 1520 1521 1522 1523 1524 1526 1527 1528 1530
1496 1497 1499 1499 1505 1514 1507 1494 1491 1489 1488 1489 1489 1490 1491 1493 1493 1494 1494 1495 1496 1497 1498 1499 1500 1500 1500 1501 1504 1506 1507 1509 1510 1512 1513 1514 1516 1517 1518 1519 1520 1521 1523 1524 1525 1526 1527 1528 1530
1497 1498 1500 1500 1506 1511 1503 1492 1490 1489 1489 1489 1490 1492 1493 1494 1495 1495 1496 1496 1497 1498 1499 1500 1501 1502 1503 1505 1506 1508 1509 1511 1512 1513 1514 1516 1517 1518 1519 1520 1521 1522 1523 1524 1525 1526 1527 1528 1530
1498 1499 1500 1503 1505 1499 1494 1490 1489 1489 1489 1490 1491 1493 1495 1496 1496 1496 1497 1497 1498 1499 1501 1502 1503 1504 1505 1506 1508 1509 1510 1512 1513 1514 1515 1517 1518 1519 1520 1521 1522 1523 1523 1524 1525 1526 1527 1528 1529
1498 1499 1503 1507 1502 1494 1489 1489 1489 1490 1490 1491 1492 1494 1496 1497 1497 1498 1498 1499 1500 1501 1502 1503 1504 1505 1506 1508 1509 1510 1511 1513 1514 1515 1517 1518 1519 1520 1521 1521 1522 1523 1524 1525 1526 1527 1528 1528 1529
1499 1500 1509 1511 1502 1493 1490 1489 1490 1491 1492 1493 1493 1495 1497 1498 1498 1499 1500 1500 1501 1502 1503 1504 1506 1507 1508 1509 1510 1511 1513 1514 1515 1516 1517 1519 1520 1520 1521 1522 1523 1523 1524 1525 1526 1526 1527 1528 1529
1501 1503 1508 1506 1503 1496 1491 1490 1491 1492 1493 1494 1494 1496 1498 1499 1500 1500 1501 1502 1503 1504 1505 1506 1507 1508 1509 1510 1511 1512 1514 1515 1516 1517 1518 1519 1520 1521 1522 1522 1523 1524 1524 1525 1526 1526 1527 1528 1528
1500 1503 1506 1506 1503 1498 1491 1491 1492 1493 1494 1494 1495 1496 1497 1499 1500 1501 1502 1503 1504 1505 1506 1507 1508 1509 1510 1512 1512 1513 1514 1516 1517 1518 1519 1520 1521 1521 1522 1523 1523 1524 1524 1525 1526 1526 1527 1527 1528
1500 1507 1509 1503 1500 1495 1490 1491 1492 1493 1494 1494 1495 1496 1497 1498 1500 1502 1503 1504 1505 1506 1507 1508 1509 1510 1511 1512 1513 1514 1515 1516 1517 1518 1519 1520 1521 1522 1522 1523 1523 1524 1524 1525 1525 1526 1526 1526 1527
1500 1508 1502 1494 1491 1490 1490 1490 1492 1493 1494 1495 1495 1496 1497 1499 1500 1502 1503 1504 1505 1507 1508 1509 1511 1512 1513 1513 1515 1516 1516 1517 1518 1519 1520 1521 1522 1522 1523 1523 1523 1524 1524 1524 1525 1525 1526 1526 1526
1498 1500 1493 1490 1489 1488 1489 1490 1491 1492 1494 1493 1494 1495 1497 1499 1501 1502 1504 1505 1507 1508 1509 1510 1512 1513 1514 1515 1516 1517 1518 1519 1519 1520 1521 1522 1522 1523 1523 1523 1523 1523 1524 1524 1524 1525 1525 1525 1525
1497 1493 1491 1488 1487 1488 1488 1489 1490 1491 1491 1491 1493 1495 1497 1498 1500 1502 1504 1506 1507 1509 1510 1511 1512 1514 1515 1516 1517 1518 1518 1519 1520 1521 1522 1522 1523 1523 1523 1523 1523 1523 1523 1523 1523 1524 1524 1524 1524
1495 1492 1489 1488 1486 1487 1488 1489 1490 1490 1490 1492 1493 1495 1497 1498 1500 1502 1504 1506 1508 1509 1511 1512 1513 1514 1515 1516 1517 1518 1519 1520 1521 1521 1522 1522 1523 1523 1523 1523 1524 1523 1523 1523 1523 1523 1523 1523 1523
1492 1491 1489 1487 1486 1487 1487 1488 1490 1489 1490 1492 1493 1495 1497 1499 1500 1502 1504 1506 1507 1509 1511 1512 1514 1515 1516 1517 1518 1519 1519 1520 1521 1521 1522 1522 1523 1523 1523 1523 1523 1523 1523 1523 1523 1523 1523 1522 1522
1492 1493 1490 1488 1486 1487 1488 1492 1489 1489 1490 1492 1494 1495 1497 1499 1500 1502 1504 1505 1507 1509 1511 1512 1514 1515 1516 1517 1518 1519 1519 1520 1521 1521 1522 1522 1522 1523 1523 1523 1523 1523 1523 1522 1522 1522 1522 1522 1521
1493 1497 1501 1490 1487 1487 1492 1499 1489 1489 1490 1492 1494 1495 1497 1498 1500 1501 1503 1505 1507 1509 1510 1512 1513 1514 1515 1517 1518 1519 1519 1520 1520 1521 1521 1522 1522 1522 1522 1522 1522 1522 1522 1522 1521 1521 1521 1521 1520
1502 1507 1504 1495 1488 1488 1492 1496 1489 1488 1490 1491 1493 1495 1496 1497 1499 1501 1503 1505 1507 1509 1510 1511 1513 1514 1515 1516 1518 1518 1519 1520 1520 1520 1521 1521 1521 1522 1522 1522 1522 1522 1521 1521 1520 1520 1520 1519 1519
1508 1507 1503 1500 1490 1489 1493 1493 1488 1489 1490 1491 1493 1494 1496 1497 1498 1500 1502 1504 1506 1508 1509 1511 1512 1513 1514 1516 1517 1517 1519 1519 1519 1519 1520 1520 1521 1521 1521 1521 1521 1521 1521 1520 1520 1519 1519 1519 1518
1497 1501 1503 1495 1488 1491 1493 1492 1489 1488 1490 1491 1492 1493 1494 1495 1497 1499 1501 1503 1505 1507 1508 1510 1511 1512 1513 1515 1515 1517 1517 1518 1518 1519 1519 1520 1520 1520 1520 1520 1520 1520 1520 1519 1519 1518 1518 1517 1517
1495 1501 1500 1493 1487 1490 1494 1493 1488 1488 1488 1489 1490 1491 1493 1495 1496 1498 1500 1502 1503 1504 1506 1508 1510 1512 1513 1514 1515 1516 1517 1517 1518 1519 1519 1519 1519 1519 1519 1519 1519 1519 1519 1518 1518 1517 1516 1516 1516
1494 1497 1496 1496 1491 1490 1494 1497 1491 1488 1487 1488 1489 1490 1491 1493 1494 1496 1498 1499 1501 1502 1504 1506 1508 1510 1512 1513 1514 1515 1516 1516 1517 1517 1518 1518 1518 1518 1518 1518 1518 1518 1517 1517 1516 1516 1515 1515 1515
1495 1486 1487 1491 1499 1506 1501 1515 1496 1490 1489 1487 1487 1487 1488 1490 1492 1494 1496 1497 1499 1500 1502 1505 1507 1508 1510 1512 1513 1513 1514 1515 1516 1517 1517 1517 1517 1517 1517 1517 1517 1516 1516 1515 1515 1514 1514 1514 1513
1485 1481 1486 1491 1499 1507 1506 1514 1504 1493 1491 1487 1485 1485 1486 1488 1489 1491 1493 1495 1497 1499 1501 1503 1505 1507 1509 1510 1511 1512 1513 1514 1515 1516 1516 1516 1516 1516 1516 1515 1515 1515 1514 1514 1513 1512 1512 1512 1511
1479 1485 1492 1500 1507 1519 1510 1514 1509 1495 1488 1483 1481 1482 1483 1485 1487 1489 1491 1493 1495 1497 1499 1502 1503 1505 1506 1508 1510 1510 1512 1512 1513 1514 1514 1514 1514 1514 1514 1514 1513 1513 1512 1512 1511 1510 1510 1509 1509
1481 1498 1517 1520 1526 1522 1507 1510 1504 1483 1480 1479 1478 1479 1480 1482 1484 1486 1488 1490 1493 1495 1497 1499 1501 1502 1504 1506 1507 1509 1510 1511 1511 1512 1512 1512 1512 1512 1512 1512 1512 1511 1510 1510 1509 1508 1508 1507 1506
1484 1492 1514 1525 1528 1520 1509 1510 1493 1478 1476 1476 1476 1477 1479 1480 1482 1484 1486 1488 1490 1492 1495 1497 1498 1500 1502 1503 1505 1506 1508 1509 1509 1510 1510 1510 1510 1510 1510 1510 1510 1509 1508 1507 1506 1506 1505 1505 1504
1483 1491 1489 1507 1514 1520 1514 1502 1486 1477 1476 1475 1476 1477 1478 1479 1480 1482 1484 1487 1488 1491 1493 1495 1497 1498 1500 1501 1502 1504 1505 1506 1507 1507 1507 1507 1507 1508 1508 1507 1507 1506 1506 1505 1504 1503 1502 1502 1501
1473 1482 1496 1509 1522 1525 1513 1506 1498 1483 1478 1476 1475 1475 1476 1478 1480 1482 1484 1485 1487 1489 1492 1493 1496 1497 1498 1498 1499 1501 1502 1504 1504 1504 1504 1504 1504 1504 1504 1505 1504 1504 1503 1502 1502 1501 1500 1499 1499
1479 1484 1492 1504 1506 1519 1521 1508 1478 1476 1474 1474 1473 1473 1474 1476 1478 1481 1483 1484 1486 1488 1490 1491 1494 1494 1496 1496 1497 1498 1500 1501 1501 1501 1501 1501 1501 1501 1502 1502 1502 1501 1500 1500 1499 1498 1497 1497 1496
1469 1476 1487 1499 1506 1509 1512 1502 1470 1470 1470 1470 1471 1472 1473 1475 1477 1479 1482 1484 1486 1487 1489 1491 1492 1493 1493 1494 1495 1496 1498 1498 1499 1499 1498 1498 1498 1498 1498 1499 1499 1498 1498 1498 1497 1496 1495 1494 1493